EJA823 KBOS-KRDU

Flight info

Callsign EJA823
Flight time N/A
Altitude 43000
Route SSOXS7 SSOXS Q167 ZJAAY TAQLE3
Aircraft C700/M-SBDGHM1RWXY/LB2

Departure

Time 2026-05-06 23:52
Airport Boston Logan International Airport (KBOS)

Arrival

Time N/A
Airport Raleigh-Durham International Airport (KRDU)
Time Latitude Longitude Altitude Speed Heading
2026-05-06 23:17 42.37419 -71.02052 20 ft 0 kts 134°
2026-05-06 23:42 42.37416 -71.02048 21 ft 2 kts 135°
2026-05-06 23:42 42.37412 -71.02023 21 ft 3 kts 82°
2026-05-06 23:43 42.37416 -71.01998 22 ft 3 kts 96°
2026-05-06 23:43 42.37400 -71.01964 20 ft 5 kts 132°
2026-05-06 23:43 42.37366 -71.01915 21 ft 7 kts 134°
2026-05-06 23:43 42.37363 -71.01911 21 ft 2 kts 133°
2026-05-06 23:44 42.37352 -71.01878 23 ft 6 kts 103°
2026-05-06 23:44 42.37366 -71.01847 24 ft 8 kts 46°
2026-05-06 23:44 42.37391 -71.01760 24 ft 12 kts 107°
2026-05-06 23:44 42.37328 -71.01657 24 ft 16 kts 135°
2026-05-06 23:45 42.37256 -71.01558 24 ft 14 kts 135°
2026-05-06 23:45 42.37164 -71.01433 24 ft 23 kts 134°
2026-05-06 23:45 42.37085 -71.01326 21 ft 14 kts 136°
2026-05-06 23:45 42.37015 -71.01232 21 ft 12 kts 134°
2026-05-06 23:46 42.36979 -71.01164 21 ft 10 kts 112°
2026-05-06 23:46 42.37000 -71.01101 18 ft 9 kts 27°
2026-05-06 23:46 42.37005 -71.01098 18 ft 0 kts 26°
2026-05-06 23:47 42.37008 -71.01096 20 ft 0 kts 26°
2026-05-06 23:48 42.37014 -71.01091 18 ft 4 kts 26°
2026-05-06 23:48 42.37071 -71.01054 19 ft 14 kts 26°
2026-05-06 23:48 42.37177 -71.00985 17 ft 18 kts 26°
2026-05-06 23:48 42.37288 -71.00916 16 ft 18 kts 22°
2026-05-06 23:49 42.37379 -71.00867 16 ft 6 kts 20°
2026-05-06 23:49 42.37427 -71.00844 17 ft 6 kts 20°
2026-05-06 23:49 42.37448 -71.00833 17 ft 4 kts 20°
2026-05-06 23:49 42.37484 -71.00816 18 ft 7 kts 20°
2026-05-06 23:50 42.37536 -71.00791 18 ft 9 kts 19°
2026-05-06 23:50 42.37679 -71.00722 22 ft 12 kts 20°
2026-05-06 23:50 42.37757 -71.00685 24 ft 12 kts 19°
2026-05-06 23:51 42.37831 -71.00632 24 ft 11 kts 52°
2026-05-06 23:51 42.37825 -71.00526 21 ft 13 kts 110°
2026-05-06 23:51 42.37741 -71.00497 20 ft 14 kts 196°
2026-05-06 23:51 42.37591 -71.00569 21 ft 55 kts 200°
2026-05-06 23:52 42.36942 -71.00883 18 ft 139 kts 200°
2026-05-06 23:52 42.35879 -71.01374 344 ft 170 kts 194°
2026-05-06 23:52 42.34777 -71.01288 1710 ft 147 kts 176°
2026-05-06 23:52 42.33784 -71.00850 2959 ft 163 kts 163°
2026-05-06 23:53 42.32811 -70.99816 3863 ft 202 kts 142°
2026-05-06 23:53 42.31842 -70.98004 3908 ft 271 kts 121°
2026-05-06 23:53 42.31363 -70.95614 3811 ft 254 kts 100°
2026-05-06 23:53 42.31454 -70.93330 3787 ft 234 kts 80°
2026-05-06 23:54 42.31782 -70.91280 3862 ft 212 kts 79°
2026-05-06 23:54 42.32054 -70.89431 3891 ft 199 kts 81°
2026-05-06 23:54 42.32311 -70.87573 3860 ft 212 kts 80°
2026-05-06 23:54 42.32609 -70.85448 4326 ft 243 kts 80°
2026-05-06 23:55 42.32926 -70.83198 5486 ft 243 kts 80°
2026-05-06 23:55 42.33133 -70.80906 6521 ft 248 kts 95°
2026-05-06 23:55 42.32815 -70.78627 7509 ft 247 kts 114°
2026-05-06 23:55 42.32110 -70.76508 8470 ft 249 kts 123°
2026-05-06 23:56 42.31371 -70.74357 9430 ft 255 kts 122°
2026-05-06 23:56 42.30632 -70.72176 10319 ft 260 kts 123°
2026-05-06 23:56 42.29713 -70.70118 11209 ft 252 kts 139°
2026-05-06 23:56 42.28481 -70.68496 12084 ft 243 kts 154°
2026-05-06 23:57 42.27057 -70.67360 12946 ft 233 kts 168°
2026-05-06 23:57 42.25538 -70.66639 13645 ft 238 kts 174°
2026-05-06 23:57 42.23879 -70.65904 13785 ft 264 kts 172°
2026-05-06 23:57 42.22092 -70.65075 13801 ft 276 kts 171°
2026-05-06 23:58 42.20297 -70.64223 13808 ft 272 kts 171°
2026-05-06 23:58 42.18492 -70.63396 13810 ft 275 kts 172°
2026-05-06 23:58 42.16695 -70.62601 13819 ft 273 kts 174°
2026-05-06 23:58 42.14874 -70.62158 14005 ft 257 kts 184°
2026-05-06 23:59 42.13116 -70.62135 14536 ft 247 kts 193°
2026-05-06 23:59 42.11455 -70.62470 15248 ft 236 kts 201°
2026-05-06 23:59 42.09911 -70.63100 15975 ft 227 kts 206°
2026-05-06 23:59 42.08441 -70.63749 16711 ft 223 kts 206°
2026-05-07 00:00 42.06983 -70.64384 17469 ft 217 kts 206°
2026-05-07 00:00 42.05564 -70.65008 18228 ft 212 kts 207°
2026-05-07 00:00 42.04179 -70.65619 18902 ft 207 kts 207°
2026-05-07 00:00 42.03278 -70.66016 19356 ft 204 kts 208°
2026-05-07 00:01 42.01510 -70.66793 20293 ft 195 kts 209°
2026-05-07 00:01 42.00240 -70.67349 21006 ft 188 kts 210°
2026-05-07 00:01 41.99039 -70.67876 21731 ft 180 kts 211°
2026-05-07 00:01 41.97878 -70.68385 22463 ft 171 kts 212°
2026-05-07 00:02 41.96775 -70.68868 23183 ft 161 kts 214°
2026-05-07 00:02 41.95740 -70.69320 23848 ft 151 kts 216°
2026-05-07 00:02 41.94782 -70.69737 24480 ft 138 kts 217°
2026-05-07 00:02 41.93920 -70.70110 25102 ft 122 kts 219°
2026-05-07 00:03 41.93152 -70.70450 25569 ft 115 kts 222°
2026-05-07 00:03 41.92344 -70.70838 25679 ft 134 kts 219°
2026-05-07 00:03 41.91392 -70.71268 25813 ft 154 kts 217°
2026-05-07 00:03 41.90319 -70.71744 25909 ft 175 kts 215°
2026-05-07 00:04 41.89093 -70.72280 25985 ft 195 kts 214°
2026-05-07 00:04 41.87749 -70.72860 26179 ft 206 kts 213°
2026-05-07 00:04 41.86359 -70.73454 26450 ft 212 kts 213°
2026-05-07 00:04 41.84972 -70.74141 26712 ft 211 kts 219°
2026-05-07 00:05 41.83691 -70.75079 26975 ft 209 kts 225°
2026-05-07 00:05 41.82546 -70.76216 27236 ft 207 kts 231°
2026-05-07 00:05 41.81507 -70.77558 27504 ft 207 kts 235°
2026-05-07 00:05 41.80481 -70.78943 27771 ft 211 kts 234°
2026-05-07 00:06 41.79432 -70.80343 27996 ft 213 kts 235°
2026-05-07 00:06 41.78376 -70.81760 28267 ft 216 kts 235°
2026-05-07 00:06 41.77324 -70.83174 28549 ft 217 kts 235°
2026-05-07 00:06 41.76251 -70.84615 28825 ft 219 kts 235°
2026-05-07 00:07 41.75172 -70.86063 29096 ft 219 kts 235°
2026-05-07 00:07 41.74089 -70.87516 29365 ft 220 kts 235°
2026-05-07 00:07 41.73020 -70.88947 29693 ft 219 kts 235°
2026-05-07 00:07 41.71941 -70.90394 29966 ft 218 kts 236°
2026-05-07 00:08 41.70869 -70.91829 30198 ft 217 kts 236°
2026-05-07 00:08 41.69803 -70.93256 30433 ft 216 kts 236°
2026-05-07 00:08 41.68741 -70.94678 30671 ft 215 kts 236°
2026-05-07 00:08 41.67682 -70.96094 30907 ft 214 kts 236°
2026-05-07 00:09 41.66628 -70.97503 31140 ft 213 kts 236°
2026-05-07 00:09 41.65580 -70.98902 31386 ft 212 kts 236°
2026-05-07 00:09 41.64550 -71.00277 31627 ft 211 kts 237°
2026-05-07 00:09 41.63517 -71.01657 31873 ft 209 kts 237°
2026-05-07 00:10 41.62489 -71.03029 32090 ft 208 kts 237°
2026-05-07 00:10 41.61467 -71.04392 32339 ft 207 kts 237°
2026-05-07 00:10 41.60452 -71.05746 32591 ft 206 kts 238°
2026-05-07 00:10 41.59451 -71.07079 32842 ft 204 kts 238°
2026-05-07 00:11 41.58450 -71.08411 33094 ft 202 kts 238°
2026-05-07 00:11 41.57457 -71.09732 33358 ft 200 kts 238°
2026-05-07 00:11 41.56474 -71.11040 33618 ft 198 kts 238°
2026-05-07 00:11 41.55501 -71.12336 33874 ft 196 kts 239°
2026-05-07 00:12 41.54861 -71.13185 34020 ft 195 kts 239°
2026-05-07 00:12 41.53903 -71.14458 34248 ft 193 kts 239°
2026-05-07 00:12 41.52653 -71.16118 34548 ft 189 kts 239°
2026-05-07 00:12 41.51726 -71.17350 34776 ft 187 kts 240°
2026-05-07 00:13 41.51103 -71.18175 34932 ft 185 kts 240°
2026-05-07 00:13 41.50204 -71.19368 35163 ft 182 kts 240°
2026-05-07 00:13 41.49308 -71.20556 35395 ft 180 kts 240°
2026-05-07 00:13 41.48432 -71.21716 35629 ft 176 kts 241°
2026-05-07 00:14 41.47567 -71.22861 35857 ft 173 kts 241°
2026-05-07 00:14 41.46725 -71.23977 36090 ft 169 kts 242°
2026-05-07 00:14 41.45909 -71.25056 36274 ft 165 kts 242°
2026-05-07 00:14 41.45105 -71.26120 36509 ft 161 kts 243°
2026-05-07 00:15 41.44323 -71.27154 36740 ft 156 kts 243°
2026-05-07 00:15 41.43564 -71.28157 36973 ft 151 kts 244°
2026-05-07 00:15 41.42829 -71.29128 37202 ft 146 kts 244°
2026-05-07 00:15 41.42121 -71.30063 37426 ft 140 kts 245°
2026-05-07 00:16 41.41442 -71.30958 37658 ft 134 kts 246°
2026-05-07 00:16 41.40795 -71.31809 37873 ft 127 kts 246°
2026-05-07 00:16 41.40166 -71.32656 37874 ft 131 kts 246°
2026-05-07 00:16 41.39510 -71.33513 37967 ft 131 kts 245°
2026-05-07 00:17 41.38843 -71.34342 37983 ft 135 kts 245°
2026-05-07 00:17 41.38135 -71.35255 37865 ft 142 kts 244°
2026-05-07 00:17 41.37472 -71.36149 38024 ft 138 kts 247°
2026-05-07 00:17 41.36759 -71.37175 37546 ft 165 kts 244°
2026-05-07 00:18 41.35890 -71.38346 37132 ft 190 kts 241°
2026-05-07 00:18 41.34894 -71.39654 36699 ft 212 kts 240°
2026-05-07 00:18 41.33793 -71.41094 36258 ft 231 kts 238°
2026-05-07 00:18 41.32602 -71.42654 35808 ft 249 kts 238°
2026-05-07 00:19 41.31346 -71.44301 35355 ft 263 kts 237°
2026-05-07 00:19 41.30008 -71.46056 34899 ft 276 kts 236°
2026-05-07 00:19 41.28612 -71.47886 34444 ft 286 kts 236°
2026-05-07 00:19 41.27169 -71.49777 33990 ft 294 kts 235°
2026-05-07 00:20 41.25711 -71.51688 33492 ft 301 kts 235°
2026-05-07 00:20 41.24201 -71.53666 32979 ft 306 kts 234°
2026-05-07 00:20 41.22676 -71.55663 32480 ft 310 kts 234°
2026-05-07 00:20 41.21171 -71.57615 32205 ft 284 kts 234°
2026-05-07 00:21 41.19855 -71.59293 32431 ft 245 kts 236°
2026-05-07 00:21 41.18689 -71.60846 32645 ft 237 kts 237°
2026-05-07 00:21 41.17533 -71.62385 32888 ft 233 kts 237°
2026-05-07 00:21 41.16391 -71.63877 33138 ft 228 kts 237°
2026-05-07 00:22 41.15266 -71.65341 33401 ft 224 kts 238°
2026-05-07 00:22 41.14167 -71.66774 33634 ft 219 kts 238°
2026-05-07 00:22 41.13088 -71.68182 33855 ft 216 kts 238°
2026-05-07 00:22 41.12026 -71.69566 34081 ft 212 kts 239°
2026-05-07 00:23 41.10983 -71.70927 34305 ft 208 kts 239°
2026-05-07 00:23 41.09970 -71.72246 34526 ft 205 kts 239°
2026-05-07 00:23 41.08960 -71.73561 34757 ft 202 kts 240°
2026-05-07 00:23 41.07969 -71.74851 34981 ft 198 kts 240°
2026-05-07 00:24 41.06993 -71.76120 35211 ft 195 kts 240°
2026-05-07 00:24 41.06034 -71.77368 35444 ft 191 kts 240°
2026-05-07 00:24 41.05091 -71.78594 35676 ft 188 kts 241°
2026-05-07 00:24 41.04175 -71.79782 35900 ft 184 kts 241°
2026-05-07 00:25 41.03268 -71.80960 36142 ft 181 kts 242°
2026-05-07 00:25 41.02380 -71.82113 36379 ft 177 kts 242°
2026-05-07 00:25 41.01513 -71.83237 36622 ft 172 kts 242°
2026-05-07 00:25 41.00663 -71.84340 36773 ft 172 kts 243°
2026-05-07 00:26 40.99797 -71.85478 36768 ft 178 kts 242°
2026-05-07 00:26 40.98899 -71.86647 36787 ft 183 kts 242°
2026-05-07 00:26 40.97974 -71.87843 36806 ft 188 kts 242°
2026-05-07 00:26 40.97024 -71.89073 36824 ft 193 kts 241°
2026-05-07 00:27 40.96052 -71.90331 36798 ft 198 kts 241°
2026-05-07 00:27 40.95056 -71.91619 36840 ft 202 kts 241°
2026-05-07 00:27 40.94040 -71.92932 36855 ft 206 kts 241°
2026-05-07 00:27 40.93007 -71.94266 36867 ft 210 kts 240°
2026-05-07 00:28 40.91967 -71.95610 36882 ft 213 kts 240°
2026-05-07 00:28 40.90899 -71.96988 36888 ft 216 kts 240°
2026-05-07 00:28 40.89820 -71.98380 36894 ft 218 kts 240°
2026-05-07 00:28 40.88727 -71.99790 36901 ft 221 kts 240°
2026-05-07 00:29 40.87621 -72.01216 36908 ft 223 kts 240°
2026-05-07 00:29 40.86506 -72.02654 36914 ft 225 kts 240°
2026-05-07 00:30 40.83107 -72.07029 36931 ft 230 kts 239°
2026-05-07 00:30 40.81960 -72.08504 36936 ft 231 kts 239°
2026-05-07 00:30 40.80807 -72.09986 36939 ft 232 kts 239°
2026-05-07 00:30 40.79648 -72.11476 36943 ft 233 kts 239°
2026-05-07 00:31 40.78482 -72.12972 36891 ft 234 kts 240°
2026-05-07 00:31 40.77317 -72.14469 36894 ft 234 kts 240°
2026-05-07 00:31 40.76159 -72.15954 36896 ft 235 kts 239°
2026-05-07 00:31 40.74983 -72.17463 36897 ft 236 kts 239°
2026-05-07 00:32 40.73803 -72.18975 36897 ft 236 kts 239°
2026-05-07 00:32 40.72622 -72.20488 36898 ft 237 kts 239°
2026-05-07 00:32 40.71433 -72.22011 36903 ft 237 kts 239°
2026-05-07 00:32 40.70248 -72.23527 36906 ft 238 kts 239°
2026-05-07 00:33 40.69075 -72.25027 36906 ft 238 kts 239°
2026-05-07 00:33 40.67883 -72.26551 36925 ft 238 kts 239°
2026-05-07 00:33 40.66695 -72.28068 36928 ft 238 kts 239°
2026-05-07 00:33 40.65504 -72.29589 36928 ft 238 kts 239°
2026-05-07 00:34 40.64310 -72.31114 36932 ft 238 kts 239°
2026-05-07 00:34 40.63118 -72.32634 36936 ft 238 kts 239°
2026-05-07 00:34 40.61927 -72.34153 36935 ft 238 kts 239°
2026-05-07 00:34 40.60746 -72.35658 36884 ft 238 kts 240°
2026-05-07 00:35 40.59555 -72.37176 36880 ft 238 kts 240°
2026-05-07 00:35 40.58362 -72.38694 36887 ft 239 kts 240°
2026-05-07 00:35 40.57168 -72.40213 36883 ft 239 kts 240°
2026-05-07 00:35 40.55973 -72.41733 36890 ft 239 kts 240°
2026-05-07 00:36 40.54777 -72.43253 36887 ft 239 kts 240°
2026-05-07 00:36 40.53580 -72.44775 36887 ft 239 kts 240°
2026-05-07 00:36 40.52383 -72.46294 36887 ft 239 kts 240°
2026-05-07 00:36 40.51200 -72.47795 36887 ft 239 kts 239°
2026-05-07 00:37 40.50002 -72.49314 36892 ft 239 kts 240°
2026-05-07 00:37 40.48804 -72.50833 36888 ft 239 kts 240°
2026-05-07 00:37 40.47607 -72.52350 36892 ft 239 kts 240°
2026-05-07 00:37 40.46409 -72.53867 36884 ft 239 kts 240°
2026-05-07 00:38 40.45210 -72.55386 36884 ft 239 kts 239°
2026-05-07 00:38 40.44026 -72.56883 36851 ft 239 kts 240°
2026-05-07 00:38 40.42828 -72.58398 36843 ft 239 kts 240°
2026-05-07 00:38 40.41627 -72.59915 36848 ft 239 kts 240°
2026-05-07 00:39 40.40426 -72.61433 36874 ft 239 kts 240°
2026-05-07 00:39 40.39228 -72.62944 36882 ft 239 kts 240°
2026-05-07 00:39 40.38046 -72.64437 36875 ft 238 kts 240°
2026-05-07 00:39 40.36852 -72.65943 36878 ft 238 kts 240°
2026-05-07 00:40 40.35655 -72.67451 36872 ft 238 kts 240°
2026-05-07 00:40 40.34461 -72.68955 36872 ft 238 kts 240°
2026-05-07 00:40 40.33267 -72.70459 36871 ft 238 kts 240°
2026-05-07 00:40 40.32074 -72.71960 36873 ft 237 kts 240°
2026-05-07 00:41 40.30877 -72.73467 36873 ft 237 kts 240°
2026-05-07 00:41 40.29703 -72.74943 36872 ft 237 kts 240°
2026-05-07 00:41 40.28507 -72.76446 36875 ft 237 kts 240°
2026-05-07 00:41 40.27315 -72.77943 36874 ft 237 kts 240°
2026-05-07 00:42 40.26124 -72.79438 36807 ft 237 kts 240°
2026-05-07 00:42 40.24928 -72.80939 36808 ft 237 kts 240°
2026-05-07 00:42 40.23748 -72.82418 36803 ft 238 kts 240°
2026-05-07 00:42 40.22553 -72.83916 36804 ft 238 kts 240°
2026-05-07 00:43 40.21355 -72.85417 36810 ft 238 kts 240°
2026-05-07 00:43 40.20158 -72.86916 36812 ft 238 kts 240°
2026-05-07 00:43 40.18960 -72.88415 36812 ft 238 kts 240°
2026-05-07 00:43 40.17762 -72.89915 36810 ft 238 kts 240°
2026-05-07 00:44 40.16563 -72.91413 36811 ft 238 kts 240°
2026-05-07 00:44 40.15380 -72.92891 36814 ft 238 kts 240°
2026-05-07 00:44 40.14182 -72.94388 36811 ft 238 kts 240°
2026-05-07 00:44 40.12982 -72.95885 36834 ft 238 kts 240°
2026-05-07 00:45 40.11783 -72.97381 36837 ft 238 kts 240°
2026-05-07 00:45 40.10586 -72.98873 36833 ft 237 kts 240°
2026-05-07 00:45 40.09392 -73.00362 36834 ft 237 kts 240°
2026-05-07 00:45 40.08196 -73.01851 36798 ft 237 kts 240°
2026-05-07 00:46 40.07001 -73.03340 36800 ft 237 kts 240°
2026-05-07 00:46 40.05807 -73.04825 36794 ft 237 kts 240°
2026-05-07 00:46 40.04609 -73.06316 36800 ft 237 kts 240°
2026-05-07 00:46 40.03428 -73.07784 36795 ft 237 kts 240°
2026-05-07 00:47 40.02231 -73.09271 36792 ft 237 kts 240°
2026-05-07 00:47 40.01034 -73.10758 36796 ft 237 kts 240°
2026-05-07 00:47 39.99838 -73.12243 36797 ft 237 kts 240°
2026-05-07 00:47 39.98638 -73.13731 36797 ft 237 kts 240°
2026-05-07 00:48 39.97441 -73.15216 36791 ft 237 kts 240°
2026-05-07 00:48 39.96243 -73.16700 36796 ft 237 kts 240°
2026-05-07 00:48 39.95044 -73.18186 36794 ft 237 kts 240°
2026-05-07 00:48 39.93860 -73.19652 36802 ft 237 kts 240°
2026-05-07 00:49 39.92663 -73.21133 36798 ft 237 kts 240°
2026-05-07 00:49 39.91465 -73.22615 36801 ft 237 kts 240°
2026-05-07 00:49 39.90266 -73.24097 36748 ft 237 kts 240°
2026-05-07 00:49 39.89067 -73.25580 36743 ft 238 kts 240°
2026-05-07 00:50 39.87864 -73.27065 36747 ft 238 kts 240°
2026-05-07 00:50 39.86655 -73.28558 36745 ft 239 kts 240°
2026-05-07 00:50 39.85447 -73.30047 36751 ft 239 kts 240°
2026-05-07 00:50 39.84257 -73.31514 36771 ft 238 kts 240°
2026-05-07 00:51 39.83052 -73.33000 36777 ft 238 kts 240°
2026-05-07 00:51 39.81849 -73.34481 36774 ft 238 kts 240°
2026-05-07 00:51 39.80645 -73.35964 36770 ft 238 kts 240°
2026-05-07 00:51 39.79441 -73.37446 36770 ft 238 kts 240°
2026-05-07 00:52 39.78236 -73.38928 36777 ft 238 kts 240°
2026-05-07 00:52 39.77033 -73.40407 36773 ft 238 kts 240°
2026-05-07 00:52 39.75830 -73.41885 36772 ft 238 kts 240°
2026-05-07 00:52 39.74628 -73.43362 36773 ft 238 kts 240°
2026-05-07 00:53 39.73441 -73.44818 36771 ft 238 kts 240°
2026-05-07 00:53 39.72241 -73.46291 36770 ft 238 kts 240°
2026-05-07 00:53 39.71033 -73.47773 36730 ft 238 kts 240°
2026-05-07 00:53 39.69826 -73.49255 36658 ft 241 kts 240°
2026-05-07 00:54 39.68599 -73.50765 36462 ft 245 kts 240°
2026-05-07 00:54 39.67349 -73.52291 36128 ft 246 kts 239°
2026-05-07 00:54 39.66117 -73.53792 35636 ft 245 kts 239°
2026-05-07 00:54 39.64891 -73.55283 35146 ft 238 kts 239°
2026-05-07 00:55 39.63698 -73.56738 34656 ft 231 kts 239°
2026-05-07 00:55 39.62541 -73.58154 34185 ft 226 kts 239°
2026-05-07 00:55 39.61404 -73.59546 33681 ft 222 kts 239°
2026-05-07 00:55 39.60291 -73.60908 33148 ft 219 kts 239°
2026-05-07 00:56 39.59185 -73.62261 32629 ft 218 kts 238°
2026-05-07 00:56 39.58089 -73.63600 32128 ft 219 kts 238°
2026-05-07 00:56 39.56988 -73.64936 31906 ft 210 kts 238°
2026-05-07 00:56 39.55930 -73.66215 31899 ft 205 kts 239°
2026-05-07 00:57 39.54891 -73.67495 31903 ft 208 kts 239°
2026-05-07 00:57 39.53824 -73.68808 31915 ft 215 kts 238°
2026-05-07 00:57 39.52716 -73.70155 31912 ft 220 kts 238°
2026-05-07 00:57 39.51606 -73.71495 31908 ft 220 kts 238°
2026-05-07 00:58 39.50491 -73.72845 31907 ft 217 kts 238°
2026-05-07 00:58 39.49393 -73.74180 31908 ft 215 kts 238°
2026-05-07 00:58 39.48304 -73.75504 31904 ft 214 kts 238°
2026-05-07 00:58 39.47587 -73.76374 31902 ft 213 kts 238°
2026-05-07 00:59 39.45060 -73.79446 31898 ft 215 kts 238°
2026-05-07 00:59 39.44335 -73.80325 31899 ft 216 kts 238°
2026-05-07 00:59 39.43236 -73.81656 31901 ft 216 kts 238°
2026-05-07 01:00 39.42136 -73.82989 31909 ft 217 kts 238°
2026-05-07 01:00 39.41033 -73.84322 31908 ft 217 kts 238°
2026-05-07 01:00 39.39929 -73.85660 31909 ft 217 kts 238°
2026-05-07 01:00 39.38841 -73.86978 31909 ft 217 kts 238°
2026-05-07 01:01 39.37737 -73.88312 31909 ft 217 kts 238°
2026-05-07 01:01 39.36636 -73.89643 31910 ft 217 kts 238°
2026-05-07 01:01 39.35533 -73.90976 31909 ft 217 kts 238°
2026-05-07 01:01 39.34432 -73.92305 31896 ft 216 kts 238°
2026-05-07 01:02 39.33326 -73.93643 31902 ft 219 kts 238°
2026-05-07 01:02 39.32205 -73.94998 31906 ft 222 kts 237°
2026-05-07 01:02 39.31089 -73.96341 31907 ft 222 kts 237°
2026-05-07 01:02 39.29963 -73.97695 31911 ft 221 kts 237°
2026-05-07 01:03 39.28844 -73.99042 31904 ft 219 kts 238°
2026-05-07 01:03 39.27732 -74.00383 31904 ft 218 kts 238°
2026-05-07 01:03 39.26624 -74.01717 31915 ft 217 kts 238°
2026-05-07 01:03 39.25527 -74.03034 31914 ft 214 kts 238°
2026-05-07 01:04 39.24445 -74.04336 31905 ft 212 kts 238°
2026-05-07 01:04 39.23365 -74.05639 31904 ft 213 kts 238°
2026-05-07 01:04 39.22277 -74.06949 31906 ft 214 kts 238°
2026-05-07 01:04 39.21192 -74.08242 31732 ft 206 kts 238°
2026-05-07 01:05 39.20147 -74.09501 30744 ft 212 kts 238°
2026-05-07 01:05 39.19680 -74.10069 30413 ft 212 kts 238°
2026-05-07 01:05 39.18613 -74.11341 29895 ft 202 kts 237°
2026-05-07 01:05 39.17638 -74.12480 29882 ft 178 kts 239°
2026-05-07 01:06 39.16752 -74.13558 29897 ft 177 kts 240°
2026-05-07 01:06 39.15832 -74.14695 29876 ft 189 kts 239°
2026-05-07 01:06 39.14839 -74.15892 29913 ft 201 kts 238°
2026-05-07 01:06 39.13777 -74.17162 29914 ft 213 kts 237°
2026-05-07 01:07 39.12666 -74.18484 29916 ft 219 kts 237°
2026-05-07 01:07 39.11559 -74.19797 29918 ft 218 kts 237°
2026-05-07 01:07 39.10452 -74.21115 29914 ft 215 kts 237°
2026-05-07 01:07 39.09361 -74.22419 29899 ft 213 kts 237°
2026-05-07 01:08 39.08281 -74.23711 29893 ft 211 kts 237°
2026-05-07 01:08 39.07207 -74.24998 29891 ft 211 kts 237°
2026-05-07 01:08 39.06126 -74.26290 29893 ft 213 kts 237°
2026-05-07 01:08 39.05038 -74.27588 29895 ft 214 kts 237°
2026-05-07 01:09 39.03947 -74.28890 29906 ft 214 kts 237°
2026-05-07 01:09 39.02849 -74.30199 29908 ft 215 kts 237°
2026-05-07 01:09 39.01748 -74.31511 29910 ft 216 kts 237°
2026-05-07 01:09 39.00643 -74.32827 29912 ft 216 kts 237°
2026-05-07 01:10 38.99542 -74.34136 29911 ft 215 kts 237°
2026-05-07 01:10 38.98459 -74.35424 29909 ft 214 kts 237°
2026-05-07 01:10 38.97365 -74.36725 29904 ft 213 kts 237°
2026-05-07 01:10 38.96288 -74.38004 29907 ft 209 kts 237°
2026-05-07 01:11 38.95224 -74.39270 29901 ft 208 kts 237°
2026-05-07 01:11 38.94158 -74.40540 29902 ft 209 kts 237°
2026-05-07 01:11 38.93083 -74.41818 29905 ft 211 kts 237°
2026-05-07 01:11 38.92002 -74.43101 29908 ft 212 kts 237°
2026-05-07 01:12 38.90928 -74.44376 29912 ft 213 kts 237°
2026-05-07 01:12 38.89836 -74.45670 29915 ft 213 kts 237°
2026-05-07 01:12 38.88746 -74.46961 29917 ft 212 kts 237°
2026-05-07 01:12 38.87664 -74.48243 29915 ft 211 kts 237°
2026-05-07 01:13 38.86583 -74.49523 29915 ft 211 kts 237°
2026-05-07 01:13 38.85508 -74.50796 29908 ft 210 kts 237°
2026-05-07 01:13 38.84449 -74.52050 29906 ft 209 kts 237°
2026-05-07 01:13 38.83379 -74.53315 29905 ft 209 kts 237°
2026-05-07 01:14 38.82312 -74.54578 29903 ft 208 kts 237°
2026-05-07 01:14 38.81247 -74.55837 29904 ft 208 kts 237°
2026-05-07 01:14 38.80177 -74.57102 29905 ft 209 kts 237°
2026-05-07 01:14 38.79104 -74.58370 29908 ft 210 kts 237°
2026-05-07 01:15 38.78027 -74.59641 29907 ft 211 kts 236°
2026-05-07 01:15 38.76942 -74.60922 29908 ft 213 kts 235°
2026-05-07 01:15 38.75838 -74.62230 29911 ft 219 kts 235°
2026-05-07 01:15 38.74706 -74.63561 29917 ft 221 kts 235°
2026-05-07 01:16 38.73578 -74.64885 29909 ft 219 kts 235°
2026-05-07 01:16 38.72473 -74.66184 29904 ft 217 kts 235°
2026-05-07 01:16 38.71365 -74.67489 29900 ft 215 kts 235°
2026-05-07 01:16 38.70267 -74.68782 29895 ft 214 kts 235°
2026-05-07 01:17 38.69172 -74.70071 29850 ft 208 kts 235°
2026-05-07 01:17 38.68113 -74.71310 28934 ft 209 kts 236°
2026-05-07 01:17 38.67042 -74.72579 28102 ft 209 kts 235°
2026-05-07 01:17 38.65974 -74.73830 27352 ft 207 kts 235°
2026-05-07 01:18 38.64917 -74.75070 26606 ft 205 kts 235°
2026-05-07 01:18 38.63878 -74.76290 25896 ft 204 kts 235°
2026-05-07 01:18 38.62832 -74.77518 25196 ft 203 kts 235°
2026-05-07 01:18 38.61792 -74.78738 24513 ft 202 kts 235°
2026-05-07 01:19 38.60758 -74.79951 23927 ft 200 kts 234°
2026-05-07 01:19 38.59786 -74.81067 23889 ft 177 kts 236°
2026-05-07 01:19 38.58913 -74.82098 23889 ft 174 kts 237°
2026-05-07 01:19 38.57985 -74.83219 23904 ft 193 kts 235°
2026-05-07 01:20 38.56947 -74.84442 23914 ft 209 kts 234°
2026-05-07 01:20 38.55851 -74.85707 23906 ft 212 kts 233°
2026-05-07 01:20 38.54767 -74.86961 23901 ft 208 kts 234°
2026-05-07 01:20 38.53707 -74.88198 23889 ft 204 kts 234°
2026-05-07 01:21 38.52675 -74.89407 23892 ft 203 kts 234°
2026-05-07 01:21 38.51633 -74.90629 23894 ft 204 kts 234°
2026-05-07 01:21 38.50582 -74.91858 23888 ft 205 kts 234°
2026-05-07 01:21 38.49524 -74.93092 23899 ft 206 kts 234°
2026-05-07 01:22 38.48463 -74.94330 23906 ft 207 kts 234°
2026-05-07 01:22 38.47397 -74.95573 23907 ft 208 kts 234°
2026-05-07 01:22 38.46342 -74.96802 23909 ft 207 kts 234°
2026-05-07 01:22 38.45278 -74.98041 23908 ft 207 kts 234°
2026-05-07 01:23 38.44217 -74.99277 23905 ft 206 kts 234°
2026-05-07 01:23 38.43159 -75.00509 23913 ft 206 kts 234°
2026-05-07 01:23 38.42102 -75.01739 23909 ft 205 kts 234°
2026-05-07 01:23 38.41047 -75.02967 23910 ft 205 kts 234°
2026-05-07 01:24 38.39996 -75.04189 23910 ft 204 kts 234°
2026-05-07 01:24 38.38945 -75.05411 23911 ft 204 kts 234°
2026-05-07 01:24 38.37889 -75.06638 23921 ft 206 kts 234°
2026-05-07 01:24 38.36822 -75.07881 23923 ft 209 kts 234°
2026-05-07 01:25 38.35747 -75.09126 23925 ft 209 kts 234°
2026-05-07 01:25 38.34689 -75.10351 23925 ft 208 kts 234°
2026-05-07 01:25 38.33622 -75.11589 23923 ft 207 kts 234°
2026-05-07 01:25 38.32556 -75.12825 23922 ft 207 kts 234°
2026-05-07 01:26 38.31495 -75.14056 23921 ft 206 kts 234°
2026-05-07 01:26 38.30431 -75.15288 23920 ft 206 kts 234°
2026-05-07 01:26 38.29372 -75.16516 23920 ft 206 kts 234°
2026-05-07 01:26 38.28313 -75.17741 23919 ft 206 kts 234°
2026-05-07 01:27 38.27254 -75.18967 23922 ft 205 kts 234°
2026-05-07 01:27 38.26208 -75.20176 23922 ft 205 kts 234°
2026-05-07 01:27 38.25150 -75.21400 23921 ft 205 kts 234°
2026-05-07 01:27 38.24093 -75.22621 23920 ft 205 kts 234°
2026-05-07 01:28 38.23038 -75.23840 23916 ft 205 kts 234°
2026-05-07 01:28 38.21981 -75.25060 23915 ft 205 kts 234°
2026-05-07 01:28 38.20928 -75.26276 23914 ft 205 kts 234°
2026-05-07 01:28 38.19873 -75.27494 23913 ft 205 kts 234°
2026-05-07 01:29 38.18816 -75.28713 23893 ft 205 kts 234°
2026-05-07 01:29 38.17753 -75.29941 23906 ft 209 kts 234°
2026-05-07 01:29 38.16670 -75.31191 23912 ft 212 kts 234°
2026-05-07 01:29 38.15574 -75.32450 23916 ft 212 kts 234°
2026-05-07 01:30 38.14484 -75.33701 23917 ft 211 kts 234°
2026-05-07 01:30 38.13412 -75.34935 23910 ft 210 kts 234°
2026-05-07 01:30 38.12331 -75.36179 23905 ft 209 kts 234°
2026-05-07 01:30 38.11254 -75.37419 23903 ft 209 kts 234°
2026-05-07 01:31 38.10179 -75.38654 23905 ft 208 kts 234°
2026-05-07 01:31 38.09106 -75.39887 23904 ft 208 kts 234°
2026-05-07 01:31 38.08035 -75.41118 23903 ft 207 kts 234°
2026-05-07 01:31 38.07674 -75.41532 23902 ft 207 kts 234°
2026-05-07 01:32 38.07401 -75.41845 23902 ft 207 kts 234°
2026-05-07 01:33 38.06282 -75.43131 23914 ft 207 kts 234°
2026-05-07 01:33 38.05218 -75.44348 23908 ft 204 kts 234°
2026-05-07 01:33 38.04177 -75.45560 23904 ft 202 kts 235°
2026-05-07 01:33 38.03166 -75.46760 23901 ft 202 kts 235°
2026-05-07 01:34 38.02135 -75.47975 23903 ft 202 kts 235°
2026-05-07 01:34 38.01099 -75.49189 23904 ft 203 kts 235°
2026-05-07 01:34 38.00061 -75.50407 23903 ft 204 kts 235°
2026-05-07 01:34 37.99020 -75.51626 23873 ft 204 kts 235°
2026-05-07 01:35 37.97971 -75.52856 23897 ft 207 kts 234°
2026-05-07 01:35 37.96907 -75.54106 23903 ft 210 kts 234°
2026-05-07 01:35 37.95831 -75.55363 23928 ft 210 kts 234°
2026-05-07 01:35 37.94756 -75.56618 23929 ft 209 kts 234°
2026-05-07 01:36 37.93684 -75.57873 23894 ft 215 kts 234°
2026-05-07 01:36 37.92570 -75.59187 23918 ft 220 kts 234°
2026-05-07 01:36 37.91455 -75.60479 23919 ft 218 kts 234°
2026-05-07 01:36 37.90354 -75.61758 23915 ft 212 kts 234°
2026-05-07 01:37 37.89283 -75.63007 23912 ft 207 kts 234°
2026-05-07 01:37 37.88238 -75.64230 23910 ft 203 kts 234°
2026-05-07 01:37 37.87204 -75.65440 23911 ft 202 kts 234°
2026-05-07 01:37 37.86168 -75.66652 23914 ft 204 kts 234°
2026-05-07 01:38 37.85117 -75.67880 23919 ft 207 kts 234°
2026-05-07 01:38 37.84052 -75.69121 23923 ft 209 kts 234°
2026-05-07 01:38 37.82986 -75.70362 23930 ft 211 kts 234°
2026-05-07 01:38 37.81904 -75.71620 23930 ft 211 kts 234°
2026-05-07 01:39 37.80821 -75.72879 23929 ft 210 kts 234°
2026-05-07 01:39 37.79745 -75.74129 23927 ft 209 kts 234°
2026-05-07 01:39 37.78676 -75.75375 23921 ft 208 kts 234°
2026-05-07 01:39 37.77612 -75.76611 23918 ft 207 kts 233°
2026-05-07 01:40 37.76551 -75.77846 23915 ft 208 kts 233°
2026-05-07 01:40 37.75483 -75.79087 23935 ft 209 kts 233°
2026-05-07 01:40 37.74397 -75.80354 23937 ft 220 kts 233°
2026-05-07 01:40 37.73220 -75.81744 23942 ft 251 kts 232°
2026-05-07 01:41 37.71857 -75.83331 23944 ft 278 kts 231°
2026-05-07 01:41 37.70400 -75.84993 23933 ft 282 kts 231°
2026-05-07 01:41 37.68952 -75.86650 23931 ft 277 kts 231°
2026-05-07 01:41 37.67543 -75.88284 23925 ft 272 kts 231°
2026-05-07 01:42 37.66160 -75.89890 23919 ft 268 kts 232°
2026-05-07 01:42 37.64807 -75.91458 23915 ft 267 kts 232°
2026-05-07 01:42 37.63432 -75.93051 23917 ft 269 kts 231°
2026-05-07 01:42 37.62043 -75.94658 23909 ft 272 kts 231°
2026-05-07 01:43 37.60663 -75.96293 23912 ft 271 kts 234°
2026-05-07 01:43 37.59455 -75.98097 23917 ft 268 kts 239°
2026-05-07 01:43 37.58287 -75.99926 23918 ft 268 kts 238°
2026-05-07 01:43 37.57113 -76.01737 23918 ft 267 kts 238°
2026-05-07 01:44 37.55944 -76.03549 23917 ft 266 kts 238°
2026-05-07 01:44 37.54781 -76.05359 23916 ft 265 kts 238°
2026-05-07 01:44 37.53636 -76.07139 23921 ft 264 kts 238°
2026-05-07 01:44 37.52478 -76.08936 23915 ft 263 kts 238°
2026-05-07 01:45 37.51321 -76.10729 23916 ft 264 kts 238°
2026-05-07 01:45 37.50162 -76.12528 23917 ft 265 kts 238°
2026-05-07 01:45 37.48999 -76.14329 23921 ft 265 kts 238°
2026-05-07 01:45 37.47833 -76.16136 23933 ft 266 kts 239°
2026-05-07 01:46 37.46663 -76.17947 23935 ft 267 kts 239°
2026-05-07 01:46 37.45888 -76.19146 23936 ft 267 kts 239°
2026-05-07 01:46 37.44319 -76.21570 23928 ft 266 kts 239°
2026-05-07 01:46 37.43544 -76.22767 23945 ft 265 kts 239°
2026-05-07 01:47 37.42383 -76.24560 23952 ft 264 kts 239°
2026-05-07 01:47 37.41223 -76.26352 23951 ft 264 kts 239°
2026-05-07 01:47 37.40059 -76.28148 23950 ft 263 kts 239°
2026-05-07 01:47 37.38916 -76.29910 23923 ft 263 kts 238°
2026-05-07 01:48 37.37757 -76.31701 23954 ft 267 kts 238°
2026-05-07 01:48 37.36569 -76.33533 23958 ft 272 kts 238°
2026-05-07 01:48 37.35364 -76.35385 23962 ft 272 kts 238°
2026-05-07 01:48 37.34164 -76.37227 23956 ft 271 kts 238°
2026-05-07 01:49 37.32989 -76.39034 23953 ft 269 kts 238°
2026-05-07 01:49 37.31807 -76.40852 23951 ft 268 kts 238°
2026-05-07 01:49 37.30628 -76.42663 23955 ft 267 kts 238°
2026-05-07 01:49 37.29452 -76.44469 23952 ft 267 kts 238°
2026-05-07 01:50 37.28271 -76.46281 23953 ft 268 kts 238°
2026-05-07 01:50 37.27095 -76.48082 23827 ft 263 kts 238°
2026-05-07 01:50 37.25930 -76.49870 23250 ft 266 kts 238°
2026-05-07 01:50 37.24775 -76.51670 22792 ft 262 kts 239°
2026-05-07 01:51 37.23646 -76.53444 22314 ft 259 kts 239°
2026-05-07 01:51 37.22518 -76.55212 21780 ft 259 kts 238°
2026-05-07 01:51 37.21392 -76.56970 21280 ft 258 kts 238°
2026-05-07 01:51 37.20264 -76.58728 20788 ft 258 kts 238°
2026-05-07 01:52 37.19154 -76.60458 20310 ft 257 kts 238°
2026-05-07 01:52 37.18028 -76.62214 19782 ft 259 kts 237°
2026-05-07 01:52 37.16896 -76.63977 19323 ft 258 kts 237°
2026-05-07 01:52 37.15771 -76.65728 18970 ft 255 kts 237°
2026-05-07 01:53 37.14683 -76.67412 18965 ft 242 kts 237°
2026-05-07 01:53 37.13633 -76.69049 18957 ft 241 kts 237°
2026-05-07 01:53 37.12559 -76.70733 18963 ft 253 kts 237°
2026-05-07 01:53 37.11446 -76.72465 18972 ft 262 kts 237°
2026-05-07 01:54 37.10293 -76.74247 18970 ft 263 kts 237°
2026-05-07 01:54 37.09145 -76.76023 18971 ft 261 kts 237°
2026-05-07 01:54 37.08009 -76.77785 18967 ft 259 kts 237°
2026-05-07 01:54 37.06882 -76.79534 18964 ft 257 kts 237°
2026-05-07 01:55 37.05759 -76.81275 18961 ft 255 kts 237°
2026-05-07 01:55 37.04640 -76.83009 18960 ft 256 kts 237°
2026-05-07 01:55 37.03520 -76.84745 18960 ft 257 kts 237°
2026-05-07 01:55 37.02406 -76.86467 18961 ft 258 kts 237°
2026-05-07 01:56 37.01275 -76.88218 18980 ft 257 kts 236°
2026-05-07 01:56 37.00156 -76.89946 18980 ft 254 kts 236°
2026-05-07 01:56 36.99048 -76.91653 18976 ft 251 kts 236°
2026-05-07 01:56 36.97953 -76.93347 18966 ft 250 kts 237°
2026-05-07 01:57 36.96855 -76.95057 18964 ft 253 kts 237°
2026-05-07 01:57 36.95729 -76.96768 18968 ft 256 kts 236°
2026-05-07 01:57 36.94600 -76.98464 18973 ft 258 kts 236°
2026-05-07 01:57 36.93451 -77.00196 18974 ft 257 kts 236°
2026-05-07 01:58 36.92309 -77.01923 18969 ft 256 kts 236°
2026-05-07 01:58 36.91171 -77.03641 18968 ft 256 kts 236°
2026-05-07 01:58 36.90052 -77.05330 18969 ft 255 kts 236°
2026-05-07 01:58 36.88923 -77.07033 18969 ft 254 kts 236°
2026-05-07 01:59 36.87794 -77.08735 18971 ft 253 kts 236°
2026-05-07 01:59 36.86666 -77.10434 18967 ft 253 kts 236°
2026-05-07 01:59 36.85540 -77.12131 18967 ft 254 kts 236°
2026-05-07 01:59 36.84423 -77.13813 18972 ft 255 kts 236°
2026-05-07 02:00 36.83288 -77.15519 18975 ft 255 kts 237°
2026-05-07 02:00 36.82153 -77.17221 18972 ft 255 kts 236°
2026-05-07 02:00 36.81018 -77.18932 18972 ft 255 kts 236°
2026-05-07 02:00 36.79879 -77.20645 18971 ft 255 kts 236°
2026-05-07 02:01 36.78757 -77.22328 18996 ft 255 kts 236°
2026-05-07 02:01 36.77620 -77.24034 18993 ft 255 kts 237°
2026-05-07 02:01 36.76489 -77.25730 18984 ft 252 kts 237°
2026-05-07 02:01 36.75369 -77.27407 18494 ft 254 kts 237°
2026-05-07 02:02 36.74239 -77.29103 18042 ft 253 kts 237°
2026-05-07 02:02 36.73117 -77.30782 17577 ft 251 kts 236°
2026-05-07 02:02 36.72014 -77.32433 17121 ft 250 kts 236°
2026-05-07 02:02 36.71072 -77.33839 17022 ft 240 kts 236°
2026-05-07 02:03 36.70008 -77.35428 16653 ft 239 kts 236°
2026-05-07 02:03 36.68959 -77.37001 16251 ft 238 kts 236°
2026-05-07 02:03 36.67901 -77.38583 15870 ft 237 kts 236°
2026-05-07 02:03 36.66845 -77.40159 15481 ft 236 kts 236°
2026-05-07 02:04 36.65793 -77.41730 15109 ft 236 kts 235°
2026-05-07 02:04 36.64744 -77.43294 14739 ft 235 kts 235°
2026-05-07 02:04 36.63698 -77.44854 14369 ft 234 kts 235°
2026-05-07 02:04 36.62667 -77.46392 14021 ft 233 kts 235°
2026-05-07 02:05 36.61677 -77.47981 13647 ft 231 kts 238°
2026-05-07 02:05 36.60728 -77.49594 13275 ft 230 kts 236°
2026-05-07 02:05 36.59710 -77.51135 12910 ft 230 kts 234°
2026-05-07 02:05 36.58670 -77.52638 12549 ft 228 kts 234°
2026-05-07 02:06 36.57645 -77.54142 12176 ft 227 kts 234°
2026-05-07 02:06 36.56632 -77.55644 11826 ft 226 kts 234°
2026-05-07 02:06 36.55624 -77.57136 11467 ft 224 kts 234°
2026-05-07 02:06 36.54625 -77.58611 11140 ft 223 kts 234°
2026-05-07 02:07 36.53629 -77.60082 10848 ft 220 kts 234°
2026-05-07 02:07 36.51680 -77.62957 10237 ft 217 kts 233°
2026-05-07 02:07 36.50708 -77.64390 9998 ft 214 kts 233°
2026-05-07 02:08 36.49773 -77.65764 9992 ft 205 kts 234°
2026-05-07 02:08 36.48855 -77.67120 9990 ft 207 kts 234°
2026-05-07 02:08 36.47913 -77.68511 9997 ft 214 kts 233°
2026-05-07 02:08 36.46943 -77.69940 10005 ft 218 kts 233°
2026-05-07 02:09 36.45953 -77.71394 10004 ft 220 kts 233°
2026-05-07 02:09 36.44969 -77.72838 10004 ft 218 kts 233°
2026-05-07 02:09 36.43995 -77.74270 10001 ft 216 kts 233°
2026-05-07 02:09 36.43030 -77.75688 9999 ft 214 kts 233°
2026-05-07 02:10 36.42392 -77.76626 9997 ft 214 kts 233°
2026-05-07 02:10 36.41392 -77.78095 9997 ft 215 kts 233°
2026-05-07 02:10 36.40428 -77.79511 9998 ft 215 kts 233°
2026-05-07 02:10 36.39460 -77.80930 9998 ft 215 kts 233°
2026-05-07 02:11 36.38501 -77.82336 9988 ft 216 kts 233°
2026-05-07 02:11 36.37528 -77.83763 9989 ft 216 kts 233°
2026-05-07 02:11 36.36554 -77.85190 9976 ft 217 kts 233°
2026-05-07 02:11 36.35577 -77.86622 9978 ft 218 kts 233°
2026-05-07 02:12 36.34596 -77.88057 9978 ft 218 kts 233°
2026-05-07 02:12 36.33615 -77.89492 9978 ft 218 kts 234°
2026-05-07 02:12 36.32630 -77.90934 9979 ft 218 kts 234°
2026-05-07 02:12 36.31651 -77.92365 9978 ft 217 kts 233°
2026-05-07 02:13 36.30686 -77.93775 9973 ft 216 kts 234°
2026-05-07 02:13 36.29715 -77.95194 9972 ft 216 kts 233°
2026-05-07 02:13 36.28735 -77.96626 9975 ft 216 kts 233°
2026-05-07 02:13 36.27759 -77.98050 9974 ft 217 kts 233°
2026-05-07 02:14 36.26776 -77.99485 9979 ft 219 kts 233°
2026-05-07 02:14 36.26457 -77.99950 9979 ft 219 kts 233°